Temp
12 12 12 11 11 11 11 11 11 11 11 11 11 11 11 11 11 11 11 11 11 11 11 11 11 11 11 11 11 11 11 11 11 10 11 11 11 11 11 11 11 11
12 12 12 11 11 11 11 11 11 11 11 11 11 11 11 11 11 11 11 11 11 11 11 11 11 11 11 11 11 11 11 11 11 11 11 11 11 11 11 11 11 11
12 12 12 12 11 11 11 11 11 11 11 11 11 11 11 11 11 11 11 11 11 11 11 11 11 11 11 11 11 11 11 11 11 11 11 11 11 11 11 11 11 11
12 12 12 12 12 12 12 12 12 11 11 11 11 11 11 11 11 11 11 11 11 11 11 11 11 11 11 11 11 11 11 11 11 11 11 11 11 11 11 11 11 11
12 12 12 12 12 12 11 12 12 12 11 11 11 11 11 11 11 11 11 11 11 11 11 12 11 11 11 11 11 12 12 11 11 11 11 11 11 11 11 11 11 11
12 12 12 12 12 12 12 12 12 12 12 12 11 11 11 11 11 11 11 11 11 11 11 12 12 11 11 11 11 12 12 12 11 11 11 11 11 11 11 11 11 11
12 12 12 12 12 12 12 12 12 12 12 12 12 11 11 11 11 11 11 11 11 11 11 11 12 12 11 11 11 11 11 12 12 12 11 12 12 11 11 11 11 11
12 12 12 12 12 12 12 12 12 12 12 12 12 12 12 12 12 12 12 11 11 11 11 11 11 11 11 11 11 11 11 11 12 12 12 12 12 12 12 11 11 11
12 12 12 12 12 12 12 12 12 12 12 12 12 12 12 12 12 12 12 12 11 11 12 12 11 11 11 11 11 11 11 11 11 11 11 12 12 12 12 12 12 12
12 12 12 12 12 12 12 12 12 12 12 12 12 12 12 12 12 12 12 12 12 12 12 12 12 11 11 11 11 11 11 11 11 11 11 11 11 11 12 12 12 12
12 12 12 12 12 13 12 12 12 12 12 12 12 12 12 12 12 12 12 12 12 12 12 12 12 12 12 12 11 11 11 11 11 11 11 11 11 11 11 12 12 12
13 12 12 12 12 12 13 12 12 12 12 12 12 12 12 12 12 12 12 12 12 12 12 12 12 12 12 12 12 11 11 11 11 11 11 11 11 11 11 12 12 12
13 13 13 13 12 12 12 12 12 12 12 12 12 12 12 12 12 12 12 12 12 12 12 12 12 12 12 12 12 12 11 11 11 11 11 11 11 12 12 12 12 12
13 13 13 13 13 12 12 12 12 12 12 12 12 12 12 12 12 12 13 13 13 12 12 12 12 12 12 12 12 12 11 11 11 12 12 11 11 11 12 12 12 12
13 13 13 13 13 13 13 13 12 12 12 12 12 12 12 12 12 12 12 13 13 12 12 12 12 12 12 12 12 12 12 11 11 11 12 12 12 11 11 11 12 12
12 13 13 13 13 13 13 13 13 13 12 12 12 12 12 12 12 12 12 12 13 13 12 12 12 13 13 13 12 12 12 12 12 12 12 12 12 12 11 11 11 12
12 12 12 13 13 13 13 13 13 13 13 13 12 12 12 12 12 12 12 12 13 12 12 12 12 13 13 13 12 12 12 12 12 12 12 12 12 12 12 12 11 12
13 13 12 13 13 13 13 13 13 13 13 13 13 13 12 12 12 12 12 13 13 13 12 13 13 13 13 13 12 12 12 12 12 12 12 12 12 12 12 12 12 12
15 15 14 14 14 13 13 13 13 13 14 13 13 13 13 12 12 12 12 13 13 13 13 13 13 13 13 13 12 12 12 12 12 12 12 12 12 12 12 12 12 12
15 15 15 15 14 14 14 13 13 14 14 14 14 13 13 13 13 12 12 13 13 13 13 13 13 13 13 13 13 12 12 12 12 12 12 12 12 12 12 12 12 12
13 14 15 15 15 14 14 14 14 14 14 14 14 14 13 13 13 13 13 13 13 13 13 13 13 13 13 13 13 12 12 12 12 12 12 12 12 12 12 12 12 12
13 13 14 14 15 14 14 14 14 14 14 14 14 14 14 13 13 13 13 13 13 13 13 13 13 13 13 13 13 13 12 12 12 12 12 12 12 12 12 12 12 12
15 15 14 14 14 14 14 14 14 14 14 14 14 14 14 14 14 13 13 13 13 13 13 13 13 13 13 13 13 13 13 12 12 12 12 12 13 13 13 13 12 12
15 15 15 14 14 14 14 14 14 14 14 14 14 14 14 14 14 14 13 13 13 13 13 13 13 13 13 13 12 12 12 12 12 12 12 12 13 13 13 13 12 12
15 15 15 15 15 14 14 14 14 14 14 14 14 14 14 14 14 14 14 13 13 13 13 13 13 13 13 13 12 12 12 12 12 12 12 12 12 13 13 13 13 13
15 16 15 15 15 14 14 14 14 14 14 14 14 14 14 14 14 14 14 14 13 13 13 13 13 13 13 13 13 12 12 12 12 12 12 12 12 12 13 13 13 13
Height
3213 3215 3217 3219 3221 3222 3224 3226 3228 3229 3230 3231 3233 3234 3235 3236 3236 3237 3237 3238 3239 3239 3240 3241 3242 3243 3244 3244 3245 3245 3245 3245 3245 3245 3245 3245 3245 3245 3246 3246 3247 3248
3211 3213 3215 3217 3219 3221 3223 3225 3227 3228 3229 3230 3232 3233 3234 3235 3236 3236 3237 3238 3238 3239 3239 3240 3241 3242 3243 3244 3245 3245 3245 3245 3245 3245 3245 3246 3246 3246 3246 3246 3247 3247
3209 3211 3213 3215 3217 3219 3221 3223 3225 3227 3228 3229 3230 3232 3233 3234 3235 3236 3236 3237 3238 3238 3239 3239 3240 3241 3242 3243 3244 3245 3245 3245 3245 3245 3245 3246 3246 3246 3247 3247 3247 3248
3207 3209 3211 3214 3216 3218 3220 3222 3223 3225 3227 3228 3229 3230 3231 3233 3234 3234 3235 3236 3237 3237 3238 3239 3239 3240 3241 3242 3243 3244 3245 3245 3245 3245 3245 3246 3246 3247 3247 3247 3248 3248
3206 3208 3209 3212 3214 3216 3218 3219 3221 3223 3225 3227 3228 3229 3230 3231 3232 3233 3234 3235 3236 3236 3237 3238 3238 3239 3240 3241 3242 3243 3244 3244 3245 3245 3245 3246 3246 3247 3247 3248 3248 3249
3204 3206 3208 3209 3212 3214 3216 3217 3219 3221 3223 3225 3227 3228 3229 3230 3231 3232 3233 3234 3234 3235 3236 3236 3237 3238 3239 3240 3241 3242 3243 3244 3244 3245 3245 3246 3246 3247 3247 3248 3248 3249
3201 3204 3206 3208 3209 3211 3213 3216 3218 3219 3221 3223 3225 3226 3227 3228 3229 3230 3231 3232 3233 3234 3234 3235 3236 3237 3237 3238 3239 3240 3242 3242 3243 3244 3245 3245 3246 3246 3247 3248 3248 3249
3199 3202 3204 3206 3207 3209 3211 3213 3215 3217 3219 3221 3222 3224 3225 3226 3228 3229 3230 3231 3231 3232 3233 3234 3234 3235 3236 3237 3238 3239 3240 3241 3242 3243 3244 3244 3245 3246 3246 3247 3248 3248
3196 3199 3201 3203 3205 3207 3209 3211 3213 3215 3217 3218 3220 3221 3223 3224 3226 3227 3228 3229 3230 3231 3232 3232 3233 3234 3234 3235 3236 3237 3238 3240 3241 3242 3242 3243 3244 3245 3245 3246 3247 3248
3193 3195 3198 3200 3202 3204 3206 3209 3211 3213 3214 3216 3218 3219 3220 3222 3224 3225 3226 3227 3228 3229 3230 3231 3232 3232 3233 3234 3235 3236 3237 3238 3239 3240 3241 3241 3242 3243 3244 3245 3246 3247
3191 3193 3194 3196 3199 3202 3204 3207 3208 3210 3212 3214 3215 3217 3218 3220 3221 3222 3224 3225 3226 3227 3228 3229 3230 3231 3232 3232 3233 3234 3235 3236 3237 3238 3239 3240 3241 3241 3242 3243 3244 3245
3190 3191 3192 3194 3196 3199 3202 3204 3206 3208 3209 3211 3213 3214 3216 3217 3219 3220 3221 3222 3224 3225 3226 3227 3228 3229 3230 3231 3232 3233 3233 3234 3235 3236 3237 3238 3238 3239 3240 3241 3242 3243
3187 3189 3191 3192 3194 3196 3199 3202 3204 3205 3207 3208 3210 3212 3213 3215 3216 3218 3219 3220 3222 3223 3224 3225 3226 3227 3228 3229 3230 3231 3231 3232 3233 3234 3235 3235 3236 3237 3238 3239 3240 3241
3186 3188 3190 3192 3193 3194 3196 3199 3201 3203 3204 3206 3208 3209 3210 3212 3214 3215 3217 3218 3220 3221 3222 3223 3224 3225 3225 3226 3227 3228 3229 3230 3231 3232 3233 3233 3234 3235 3236 3237 3238 3239
3184 3186 3188 3190 3191 3192 3194 3195 3198 3200 3201 3203 3204 3206 3208 3210 3211 3213 3214 3216 3217 3218 3219 3220 3221 3222 3223 3224 3225 3226 3227 3228 3228 3229 3230 3231 3232 3233 3233 3234 3235 3236
3181 3183 3185 3187 3189 3190 3191 3193 3195 3197 3198 3200 3201 3203 3204 3206 3208 3210 3211 3213 3214 3215 3217 3217 3218 3219 3220 3222 3223 3224 3224 3225 3226 3227 3228 3229 3230 3230 3231 3232 3233 3234
3178 3180 3182 3183 3185 3187 3189 3190 3192 3194 3195 3196 3198 3199 3201 3203 3205 3206 3208 3210 3211 3213 3214 3214 3215 3217 3218 3220 3221 3222 3222 3222 3223 3224 3225 3226 3227 3228 3229 3230 3230 3231
3178 3179 3178 3179 3181 3183 3185 3187 3189 3190 3192 3193 3194 3196 3198 3199 3201 3203 3205 3207 3208 3210 3211 3211 3213 3215 3216 3217 3218 3219 3220 3220 3221 3222 3223 3224 3224 3226 3227 3228 3228 3229
3176 3177 3176 3175 3176 3178 3181 3183 3185 3186 3188 3189 3191 3193 3194 3196 3197 3199 3201 3203 3205 3206 3208 3209 3210 3212 3213 3215 3216 3217 3218 3218 3219 3220 3221 3221 3222 3223 3224 3225 3226 3226
3171 3174 3175 3174 3173 3174 3176 3178 3180 3183 3185 3186 3188 3189 3190 3192 3194 3196 3197 3200 3202 3203 3205 3206 3208 3209 3211 3212 3213 3214 3215 3216 3216 3217 3218 3219 3220 3221 3222 3222 3223 3224
3167 3170 3173 3173 3173 3172 3173 3174 3176 3179 3181 3183 3185 3186 3187 3188 3190 3192 3194 3196 3198 3200 3202 3203 3205 3207 3208 3209 3211 3212 3213 3213 3214 3214 3215 3216 3217 3218 3219 3220 3221 3222
3165 3166 3168 3170 3171 3171 3171 3172 3173 3175 3178 3180 3182 3183 3184 3185 3187 3188 3190 3193 3195 3197 3198 3200 3202 3204 3205 3206 3208 3209 3210 3210 3211 3211 3212 3213 3214 3215 3217 3218 3219 3219
3162 3163 3164 3165 3167 3168 3169 3170 3171 3172 3175 3177 3179 3180 3181 3182 3183 3185 3187 3189 3191 3193 3195 3197 3199 3201 3202 3204 3205 3206 3207 3207 3208 3208 3209 3210 3211 3213 3214 3215 3216 3217
3157 3158 3160 3161 3162 3164 3165 3167 3169 3170 3172 3174 3176 3177 3178 3180 3181 3183 3184 3186 3188 3190 3192 3193 3196 3198 3200 3201 3203 3204 3204 3205 3205 3206 3207 3208 3209 3211 3212 3213 3214 3215
3151 3153 3154 3156 3158 3159 3161 3164 3166 3168 3169 3171 3172 3174 3176 3177 3179 3180 3181 3183 3184 3186 3188 3190 3192 3194 3196 3198 3200 3201 3201 3202 3203 3203 3204 3205 3207 3208 3209 3210 3211 3213
3147 3148 3149 3151 3154 3155 3158 3160 3162 3164 3166 3167 3169 3171 3173 3174 3176 3177 3178 3179 3181 3183 3185 3187 3189 3191 3193 3195 3197 3198 3199 3199 3200 3200 3201 3203 3204 3205 3207 3208 3209 3210
Wind_Speed
24 24 25 26 26 24 21 21 21 20 18 17 16 16 15 15 15 15 14 14 13 12 11 11 10 10 9 9 9 8 8 8 7 6 6 6 6 6 7 8 8 7
25 24 23 25 27 26 24 22 22 21 20 18 17 17 17 17 16 16 16 15 15 14 13 12 11 11 10 10 9 9 8 8 7 7 6 6 6 6 6 6 6 7
27 26 23 23 25 27 26 24 23 23 22 21 20 19 19 18 18 17 17 16 16 15 15 13 12 12 12 11 10 10 10 9 8 7 7 7 6 6 6 6 6 8
28 27 24 22 23 25 26 26 25 25 24 24 23 22 21 20 19 18 18 17 17 16 16 15 14 13 12 12 12 12 11 10 10 9 8 8 8 7 7 6 7 8
27 27 26 24 23 24 26 27 26 26 26 25 24 24 23 22 21 20 19 18 17 17 17 16 16 15 14 13 13 13 13 12 11 10 9 8 8 8 8 8 8 10
27 28 27 26 25 25 26 26 26 26 26 26 25 25 25 24 23 22 20 20 19 18 18 18 18 17 16 15 14 14 14 14 13 12 11 10 9 9 9 10 10 11
27 27 27 27 26 26 26 26 26 26 26 26 26 26 25 25 24 23 22 21 21 20 19 19 19 18 18 17 16 15 15 15 15 15 14 13 12 10 10 10 11 11
28 27 27 27 27 27 27 27 27 27 26 27 27 26 26 26 25 24 23 23 23 22 21 20 20 20 19 19 18 17 16 16 15 15 15 15 14 13 12 12 12 12
30 29 28 28 28 28 27 27 27 27 27 28 28 27 26 26 26 25 24 24 24 24 23 22 22 21 21 20 20 19 18 17 17 16 16 16 16 15 15 14 14 13
32 32 30 29 29 29 28 27 27 27 27 28 28 28 28 27 26 26 25 25 25 25 24 23 23 23 22 22 21 20 19 19 18 18 18 18 17 17 18 17 16 15
34 34 33 32 30 29 29 28 28 28 28 28 29 29 29 28 27 27 27 27 26 26 25 24 23 23 23 23 22 21 21 20 20 20 19 19 19 19 20 19 19 18
34 34 34 33 32 31 29 29 29 29 29 29 29 29 29 29 29 28 28 28 27 26 26 25 24 24 24 23 23 22 22 22 22 21 20 20 21 21 21 21 20 20
34 34 34 33 33 32 31 30 30 30 30 30 30 30 30 30 30 29 28 27 27 27 27 26 26 26 25 24 23 23 24 23 23 22 22 21 21 21 21 21 21 21
34 33 33 33 33 33 32 31 31 31 31 31 31 31 31 31 30 29 28 27 27 28 29 28 28 28 27 26 25 25 25 25 25 24 23 23 22 21 21 20 21 21
34 34 34 33 33 33 33 32 32 32 32 32 32 32 32 32 31 30 29 27 26 27 29 30 30 29 28 28 27 26 26 26 26 26 25 24 23 22 21 21 20 20
33 34 35 35 34 33 33 33 33 33 32 32 33 32 32 32 32 31 30 29 27 27 28 30 32 31 29 29 29 28 28 28 27 27 26 25 24 24 23 22 21 20
33 33 33 35 35 34 33 33 32 33 33 33 33 33 32 33 33 33 32 30 29 28 29 30 32 31 30 29 29 29 30 30 29 29 28 27 26 25 24 23 22 22
29 30 33 35 36 35 34 33 33 32 33 33 33 33 32 33 33 33 33 31 30 29 29 30 31 30 30 29 29 29 30 31 31 30 30 29 28 26 25 24 24 23
24 24 29 32 35 35 35 34 34 33 32 32 32 32 32 33 33 33 33 32 31 30 30 30 30 30 29 29 28 28 29 30 31 31 31 30 29 28 26 25 25 24
26 23 25 28 31 33 35 35 35 33 32 31 32 32 33 33 33 33 33 32 31 30 30 30 30 29 29 28 28 28 28 29 30 31 32 31 30 29 28 27 26 26
31 28 27 29 31 33 34 34 34 33 31 31 31 32 32 32 32 32 33 32 31 30 29 30 29 28 28 27 27 27 28 28 30 30 31 31 30 29 29 29 28 27
31 30 31 33 34 34 34 34 34 33 32 31 31 31 31 31 32 32 32 32 31 30 30 29 29 28 27 26 26 27 27 29 30 30 31 31 30 30 29 29 29 29
28 30 33 35 37 37 36 35 35 35 34 33 32 31 30 30 31 31 32 32 31 31 30 29 28 28 27 26 26 26 27 29 30 30 30 30 29 29 29 29 29 29
29 32 34 37 39 39 38 37 36 35 35 35 34 32 30 29 29 30 30 31 30 30 30 29 28 27 27 27 26 26 26 27 28 28 29 29 28 28 28 28 28 28
31 34 36 39 41 41 39 38 37 36 35 35 35 34 32 31 30 30 30 30 30 30 30 29 29 28 27 27 27 27 27 27 27 28 28 27 27 27 28 28 28 28
34 36 39 41 43 42 40 39 38 37 36 36 36 36 34 33 32 31 31 31 30 30 30 30 29 28 28 28 28 29 29 29 29 30 29 27 26 26 27 28 28 27
Wind_Direction
213 210 209 210 213 216 213 207 207 211 214 212 203 200 203 202 199 200 198 197 198 198 196 193 189 183 175 171 170 164 157 157 154 150 146 142 145 153 153 150 154 161
218 215 210 208 212 216 215 211 208 208 211 214 210 204 205 207 205 204 203 200 201 202 200 198 197 191 184 181 179 173 167 165 161 157 155 149 146 153 159 159 158 158
220 220 215 209 210 215 216 214 211 209 208 210 212 211 209 209 208 208 207 205 204 204 203 201 202 199 192 189 188 183 177 171 169 167 164 161 159 158 159 160 161 159
220 222 221 215 211 213 217 217 214 211 210 209 210 212 213 213 211 211 211 210 208 207 206 204 205 205 200 195 194 193 189 182 178 176 172 168 167 169 169 163 162 163
219 222 223 221 216 214 216 219 217 214 212 211 211 212 214 215 215 214 214 214 213 211 210 208 207 208 206 201 199 198 197 194 189 186 183 179 176 175 176 172 166 165
216 219 222 223 221 218 217 219 220 219 216 215 215 215 216 217 217 217 217 218 217 215 214 213 210 209 209 207 204 203 202 201 199 196 193 190 187 181 179 178 172 169
213 216 219 222 222 221 219 219 220 221 221 220 220 219 220 220 220 219 219 220 221 220 217 216 214 213 212 211 208 207 208 208 206 204 201 199 196 190 186 185 183 181
211 214 217 219 221 222 220 219 218 219 221 223 224 223 223 224 224 222 221 221 224 224 221 219 218 216 215 213 212 211 212 213 212 210 208 207 203 199 196 194 193 193
211 212 215 217 220 221 220 219 218 217 219 222 225 226 226 226 225 225 224 223 224 227 226 223 221 221 219 215 214 214 213 214 215 215 214 213 210 208 206 203 201 200
212 211 214 216 218 220 219 219 218 217 218 221 223 226 228 228 226 226 226 226 225 226 227 227 224 224 223 219 216 216 215 215 215 217 218 218 216 214 213 211 208 207
213 212 213 214 217 219 220 219 219 219 219 220 221 224 227 229 228 227 226 226 225 225 225 226 226 226 226 224 221 219 218 219 218 219 220 221 220 218 218 216 213 212
215 215 214 213 216 219 220 220 220 220 221 220 221 223 225 228 230 229 227 226 226 226 225 225 224 226 227 226 224 223 223 223 223 222 221 221 221 221 221 221 218 216
218 219 218 216 216 217 219 221 221 221 222 222 222 224 225 227 229 230 229 226 224 225 226 226 224 224 225 226 225 225 225 225 226 225 222 222 223 223 223 224 223 222
220 221 222 220 219 218 219 221 222 222 223 223 224 226 226 228 229 231 232 228 224 223 225 227 227 225 224 225 225 226 226 227 228 227 225 223 224 226 227 226 226 226
222 223 224 224 223 222 220 220 221 222 224 224 225 227 228 230 231 231 232 231 226 223 223 226 228 227 225 225 226 227 228 229 230 231 229 226 225 228 231 232 232 232
223 224 225 226 226 225 224 222 222 222 224 224 225 226 228 231 232 232 233 232 229 226 224 225 228 229 227 225 226 228 230 232 233 234 233 231 228 228 231 235 237 238
226 225 226 227 227 227 226 226 225 225 225 225 226 226 227 230 232 234 235 234 232 230 228 227 228 230 230 229 228 228 230 232 234 235 236 234 232 230 230 233 236 239
229 227 226 227 226 226 226 227 227 227 227 227 227 227 227 229 232 235 236 236 235 232 231 230 229 229 230 231 231 231 231 233 234 236 237 237 235 233 232 232 234 236
231 226 219 218 220 222 224 225 227 228 228 228 229 228 228 229 231 235 237 237 236 234 233 233 232 230 230 229 231 232 232 234 236 237 238 239 239 238 237 236 236 236
234 229 215 210 213 217 220 223 225 227 229 230 230 230 230 230 231 234 237 238 238 236 234 234 234 233 232 230 230 231 232 235 237 239 240 240 240 240 241 241 242 241
241 237 226 218 216 216 218 220 223 226 228 230 231 231 231 231 232 234 237 240 241 239 236 235 234 234 234 233 231 231 232 235 237 238 240 240 240 240 240 241 243 244
244 240 232 225 222 220 220 220 220 223 226 229 232 233 233 233 233 234 236 239 241 241 240 237 234 233 235 235 234 232 233 234 236 237 239 239 239 238 238 240 242 243
237 236 232 228 226 224 223 222 222 223 225 228 231 233 233 234 234 234 236 239 241 242 242 240 236 233 233 234 234 234 234 234 236 238 239 240 240 239 239 239 240 242
228 232 230 227 225 225 225 226 225 225 226 228 232 234 235 235 236 237 238 240 241 242 242 242 239 236 234 233 232 233 234 235 236 237 239 241 241 241 241 241 241 242
226 231 230 226 223 223 225 227 228 227 227 229 232 235 236 237 238 239 239 240 242 243 243 243 241 238 235 232 231 231 233 235 238 239 240 241 242 243 244 244 244 245
223 227 230 226 222 223 226 227 229 229 229 229 231 234 237 238 238 239 239 240 241 243 244 244 243 240 237 234 231 230 232 235 238 241 242 242 243 245 247 249 250 250